CZ-4C DEB

Satellite information

Favourite Embed

Satellite Type and Status

DEBRISIN ORBIT

Key statistics

Satellite CZ-4C DEB at a glance.

Uptime

4304

Days in orbit

Revolutions

≈ 13.8

Per day

Orbit

SSO

Sun Synchronous Orbit

Inclination

98.7

Latest

Satellite identification and parameters

Extended collection of information and parameters for CZ-4C DEB.

Object identification

Identified? True

Debris? True

Object name: CZ-4C DEB

International designator: 2013-052D

Object number (NORAD): 43409

Object ID (CCSDS): 43409

Country: PEOPLES REPUBLIC OF CHINA (PRC)

Current information (Y/N): Y

RCS size: SMALL

Orbital parameters

Period: 104.52 minutes

Inclination: 98.747 deg

SMA: 7350.085 km

Apoapsis: 1145.456 km

Periapsis: 798.445 km

RAAN: 313.9362 deg

Eccentricy: 0.0236059

Argument of periapsis: 191.953 deg

Mean anomaly: 167.596 deg

Mean motion: 13.77730262 rev/day

Mean motion (dot): 0.00000464 rev/day2

B* drag term: 0.00040964 1/REarth

Two-line elements (TLE)

Creation date: July 3, 2025, 7:06 a.m.

Reference frame: TEME

Reference center: EARTH

Epoch: July 3, 2025, 3:59 a.m. UTC

TLE line 0: 0 CZ-4C DEB

TLE line 1: 1 43409U 13052D 25184.16662413 .00000464 00000-0 40964-3 0 9990

TLE line 2: 2 43409 98.7470 313.9362 0236059 191.9530 167.5960 13.77730262583195

Live tracking on map

Real-time ground track for satellite CZ-4C DEB.

In-orbit conjunctions

A list of the most updated potential collisions computed for object CZ-4C DEB.

Target Orbit TCA Probability of collision Miss distance Type
METEOR 2-9 LEO 2025-04-08 01:11:10 0.0005818941 47.0 (m) PAYLOAD

Associated space launch

CZ-4C DEB was lifted into orbit during the mission ‘Long March 4C | Fengyun-3C’, on board a Long March 4C space rocket.

The launch took place on Sept. 23, 2013, 3:07 a.m. from Launch Complex 9.

For more information about the launch, click the button.

Launch to space Long March 4C | Fengyun-3C
Long March 4C | Fengyun-3C

Agency: N/A

Status: Launch Successful

Launch date: Sept. 23, 2013, 3:07 a.m. UTC

Rocket: Long March 4C

Launch pad: Launch Complex 9

Location: Taiyuan Satellite Launch Center, People's Republic of China

...

Latest news about this satellite

There are no fresh news available about this satellite. Check back as we update our databases every day.


Newsletter sign-up

Weekly statistics, charts and insights to help you stay on top of the space industry.